Theta_e
327 324 323 323 321 323 324 325 326 327 333 347 350 349 346 347 344 343 343 343 343 345 345 344 346 346 344 344 345 344 345 342 341 342 344 344 344 342 341 339 336 333 342 338
322 322 322 323 324 324 324 324 326 326 343 345 347 350 345 346 346 346 345 344 343 344 343 343 344 346 344 344 345 344 344 343 341 342 343 344 342 343 341 341 337 336 342 339
322 324 324 324 324 324 324 323 325 326 334 345 339 337 347 346 345 346 346 344 342 342 342 341 344 345 345 345 344 344 343 341 342 342 342 343 343 344 342 341 341 339 342 339
323 324 324 324 324 324 322 325 325 326 327 335 334 334 328 344 344 344 344 344 343 342 342 342 342 343 345 344 344 344 342 339 341 343 343 342 344 344 340 338 341 341 345 342
324 325 325 325 325 323 324 325 325 326 327 326 327 328 326 340 344 345 342 343 343 343 343 342 343 342 343 344 344 344 342 338 342 343 343 343 343 340 339 339 342 343 344 342
323 325 324 324 325 325 326 324 321 321 322 324 324 328 328 337 343 344 344 342 343 343 343 342 343 343 343 344 344 344 343 337 338 341 341 341 343 341 341 344 341 342 338 339
324 325 324 326 326 325 321 319 322 323 321 322 322 330 328 329 334 339 340 340 343 339 343 343 343 343 344 344 344 343 344 336 338 338 337 339 341 340 342 343 336 336 337 336
323 326 324 325 325 327 325 319 320 323 323 323 323 330 326 329 334 336 339 339 341 342 345 343 343 343 343 344 344 344 344 338 337 337 337 338 338 339 341 342 343 342 339 340
322 325 326 326 325 325 325 320 318 316 317 319 320 323 327 334 336 337 337 338 339 343 344 345 344 344 344 344 344 343 344 343 336 337 341 341 339 340 344 343 341 342 344 344
322 324 325 326 326 324 322 319 321 315 322 323 323 325 325 334 336 335 335 338 337 337 342 343 343 342 343 343 343 344 344 345 341 335 339 343 340 341 344 345 345 344 344 346
323 321 326 325 324 326 322 320 315 314 316 319 320 323 324 331 334 335 335 337 338 338 339 341 344 344 344 344 344 344 344 346 345 339 336 342 339 339 340 343 345 344 344 346
327 321 324 325 325 323 321 319 314 316 318 316 317 320 323 325 331 337 338 338 338 339 337 338 341 344 344 345 345 345 345 346 346 342 337 338 339 340 340 339 342 341 343 344
330 324 324 325 324 327 325 325 318 314 313 318 319 320 321 333 333 338 340 340 340 339 338 340 341 343 344 345 345 345 345 346 347 345 340 338 340 339 339 338 341 341 343 345
327 326 327 328 329 327 330 332 327 323 324 322 320 324 323 324 334 335 339 341 341 338 340 343 342 343 344 345 346 346 346 346 347 346 344 339 338 338 337 337 338 338 342 343
324 329 329 327 328 331 333 333 333 330 324 326 326 321 323 323 324 332 335 338 339 336 343 344 344 345 345 346 347 339 344 347 346 347 346 343 339 338 339 339 339 341 341 343
320 320 325 323 327 332 332 330 331 332 330 324 325 328 323 328 329 335 336 336 337 334 341 344 345 345 344 345 346 346 344 346 347 346 346 346 339 341 343 346 348 346 345 344
316 319 321 320 327 324 318 325 331 331 330 330 331 330 337 335 329 332 335 337 336 335 335 341 339 342 345 345 345 346 345 346 347 346 347 347 343 344 346 347 349 346 346 346
315 315 316 318 321 324 316 328 328 332 341 340 339 340 338 336 336 336 336 336 338 336 337 341 342 341 343 344 344 344 345 346 346 346 347 347 347 343 344 346 344 346 347 346
313 313 317 320 323 320 321 320 323 328 333 337 336 336 334 334 337 337 339 338 340 336 341 343 343 343 343 344 344 344 345 346 346 346 347 348 349 348 347 348 347 346 344 347
313 311 317 316 321 323 323 330 330 330 330 334 333 332 330 333 335 333 336 337 339 338 345 345 345 345 344 344 345 346 346 346 347 347 348 349 349 349 348 348 345 348 343 347
320 320 323 318 320 319 328 326 331 331 327 332 331 330 329 329 331 334 335 336 340 344 348 347 347 347 347 346 346 347 346 345 346 347 348 349 349 348 347 347 348 346 347 348
320 323 322 323 323 325 324 326 333 328 330 332 332 330 329 331 331 336 336 339 336 337 341 349 348 348 348 347 347 346 346 349 348 348 348 350 350 349 348 348 350 349 348 340
321 320 322 322 322 322 322 324 323 329 329 329 331 331 330 331 330 333 337 337 340 342 346 348 351 349 348 347 347 349 349 350 350 350 349 348 349 350 351 351 349 343 337 335
316 320 320 321 320 321 322 321 322 323 329 328 328 331 331 330 331 329 334 335 337 337 345 350 351 352 349 350 348 349 349 350 350 350 351 351 352 351 349 349 345 336 340 337
315 317 317 317 318 318 318 321 324 326 326 330 330 328 327 330 331 331 330 334 335 337 339 345 350 351 350 349 350 352 351 348 349 349 351 349 350 349 347 346 338 340 340 341
315 314 314 317 316 318 319 319 318 320 323 329 328 328 328 328 330 331 332 335 336 337 336 340 342 348 352 350 351 353 351 347 348 351 348 346 345 348 340 336 339 341 341 342
Wind_Speed
8 3 7 12 6 7 3 4 8 16 10 6 15 16 8 14 16 18 26 23 22 27 30 27 31 29 26 21 19 18 13 10 10 16 19 20 19 18 20 20 17 15 11 9
4 7 12 5 4 5 5 7 17 12 5 10 3 16 6 10 18 27 25 23 26 26 27 28 30 33 30 24 21 18 13 10 10 15 18 19 20 19 20 19 17 16 14 14
7 12 2 3 6 5 10 6 13 8 4 3 3 7 6 7 4 17 22 26 28 31 26 27 32 35 33 29 24 18 11 9 11 16 18 20 19 21 22 18 18 18 16 12
6 11 8 8 9 4 8 15 14 6 2 4 5 6 6 5 4 6 18 27 30 31 33 28 32 35 37 25 25 17 12 10 15 20 21 23 20 23 23 19 18 18 14 13
10 4 6 5 9 7 11 6 5 4 3 2 2 1 7 3 6 14 16 27 30 33 36 34 35 36 36 33 24 21 14 14 19 23 21 23 21 19 23 20 20 19 16 14
9 6 5 8 8 7 7 2 5 5 3 1 3 4 8 4 7 5 14 29 33 32 34 35 33 35 37 37 22 25 18 18 20 24 23 24 21 23 23 22 23 20 16 17
4 13 5 6 6 4 4 5 3 5 4 7 1 2 9 13 7 11 8 25 36 34 40 39 38 41 40 40 34 28 21 20 21 24 23 25 21 22 23 20 24 23 20 20
5 10 8 3 8 6 3 7 5 7 3 5 3 4 7 4 6 11 14 16 24 29 34 38 41 43 43 41 34 31 26 22 24 25 25 23 22 23 20 21 23 22 19 17
5 8 2 3 2 6 4 5 4 6 2 3 4 8 9 6 1 7 14 16 24 36 35 37 40 42 46 43 39 34 30 23 26 26 25 25 25 25 20 19 23 22 19 16
6 6 6 11 4 4 7 6 2 3 3 4 4 5 5 7 8 8 10 21 26 28 35 37 39 42 44 43 39 37 31 25 25 28 28 27 27 26 21 18 17 20 19 16
1 3 7 1 5 6 1 3 4 5 5 5 2 6 8 9 10 10 9 24 30 29 25 34 38 39 39 40 40 37 36 30 26 27 28 29 28 27 24 22 22 19 20 18
2 3 4 9 3 5 1 3 5 5 7 4 5 6 4 8 11 11 17 21 25 31 20 13 35 39 38 37 35 38 39 34 28 23 27 28 28 27 25 24 24 22 22 19
5 2 4 9 6 6 6 5 3 4 3 3 5 6 3 5 7 16 14 18 20 24 26 20 33 39 37 38 40 40 40 36 30 25 25 27 27 27 26 24 26 24 23 22
4 2 4 5 4 3 4 6 4 2 2 3 5 7 9 8 7 15 22 23 22 18 17 24 35 38 37 40 41 39 38 39 33 29 24 26 27 26 25 24 23 24 22 20
4 3 3 6 8 5 6 6 5 6 5 5 7 7 9 8 10 13 23 25 29 24 23 28 33 37 37 39 40 26 37 41 36 31 26 23 25 25 23 22 21 19 20 21
1 4 2 6 6 8 10 11 9 8 7 6 5 5 4 21 22 15 15 21 30 30 30 29 28 33 37 41 42 48 42 34 39 32 27 24 23 23 22 19 17 18 18 19
4 4 2 6 2 6 9 8 5 4 3 1 1 4 10 11 9 19 20 23 29 29 34 32 33 36 41 42 43 41 39 38 39 34 29 23 23 24 22 20 18 16 17 18
5 4 2 4 2 5 7 2 2 6 4 4 3 6 10 13 25 25 27 20 31 23 27 28 28 30 37 39 38 41 37 37 37 30 30 26 23 22 19 19 17 19 16 18
5 4 2 2 3 7 10 8 2 6 6 2 4 9 13 25 15 15 10 18 29 24 20 24 22 25 31 34 35 38 35 33 34 33 30 26 23 21 19 20 18 17 15 14
3 3 4 3 3 5 2 9 16 12 4 3 4 5 10 17 3 5 6 6 19 22 23 23 21 27 29 32 34 34 35 32 32 29 27 25 23 20 17 17 17 16 13 12
5 3 3 4 5 5 3 17 13 5 4 4 5 6 10 3 8 29 30 12 11 13 17 19 22 25 26 30 30 33 32 23 21 21 19 20 23 20 17 16 14 13 13 13
3 2 3 2 3 6 11 8 1 4 6 6 10 7 13 18 23 22 14 9 10 12 14 19 26 27 24 26 31 35 32 21 19 18 18 20 20 19 18 16 13 11 10 10
3 4 2 5 4 5 16 13 16 16 17 13 14 12 12 17 23 23 14 8 8 8 6 15 25 29 23 24 24 23 22 21 20 20 20 19 18 18 16 14 12 10 10 8
3 2 4 3 4 8 24 32 28 21 26 22 17 18 13 17 19 24 17 12 8 7 6 15 25 30 24 24 24 19 17 21 21 20 18 18 17 16 14 11 9 10 10 9
8 3 5 7 15 27 33 19 22 23 21 25 23 22 21 19 18 24 23 17 14 9 6 6 14 24 26 25 24 23 20 20 22 18 17 16 15 13 11 10 9 9 9 10
9 6 4 7 20 17 28 26 33 33 31 25 20 21 22 22 16 18 23 15 13 10 9 8 11 23 32 29 29 24 19 15 16 16 16 15 13 12 10 10 11 10 11 11
Wind_Direction
285 32 252 250 210 232 266 256 257 284 270 162 211 236 236 222 205 214 226 228 217 201 208 211 215 212 210 206 206 213 219 229 212 201 194 191 191 184 174 178 179 171 173 162
357 249 243 248 268 235 242 275 282 277 210 178 145 247 237 206 217 209 218 222 206 194 201 205 210 214 211 208 206 215 225 228 214 203 194 189 180 176 171 172 177 169 171 162
191 244 32 252 286 304 283 221 272 238 337 201 109 295 252 238 229 208 220 224 210 196 194 205 206 212 214 210 208 214 223 229 196 188 185 176 181 175 176 179 175 171 170 184
226 273 239 269 276 156 265 277 256 256 116 222 142 272 277 281 265 212 217 223 221 213 210 203 210 211 213 210 212 215 212 211 185 185 180 181 181 186 182 180 176 175 171 181
239 243 225 230 242 171 238 283 260 266 169 46 243 48 269 3 264 232 210 221 220 220 216 210 213 213 213 203 215 207 204 198 187 187 183 186 190 188 181 186 191 183 183 179
234 257 178 222 256 190 266 295 35 43 71 23 273 133 288 226 222 251 198 209 216 216 217 214 217 216 213 205 200 212 202 196 192 190 193 191 189 190 192 192 200 190 192 186
304 258 255 208 274 331 87 61 329 336 356 238 35 114 241 263 248 239 175 200 213 218 210 213 213 211 211 207 203 205 200 200 198 190 191 189 197 197 196 197 201 206 204 195
190 312 174 177 188 215 217 156 162 228 215 256 309 255 267 324 291 224 210 222 203 201 210 214 213 214 212 212 199 210 204 202 199 193 191 192 195 196 200 203 201 205 204 198
164 266 215 254 112 122 277 228 208 108 25 49 258 292 317 332 143 176 160 181 186 203 201 207 213 217 215 213 207 208 207 207 203 199 194 196 195 191 191 195 211 206 203 215
228 262 240 277 179 238 165 168 72 16 166 243 280 281 241 303 262 237 162 198 196 200 208 205 204 213 218 217 212 211 209 217 210 207 205 203 203 199 199 207 203 206 205 207
42 181 280 182 182 203 165 239 47 121 131 177 193 264 214 230 237 236 232 217 216 212 201 208 209 213 215 214 211 215 210 212 213 211 209 208 208 210 209 208 209 215 216 222
300 173 272 240 265 320 123 86 136 124 262 173 161 267 268 255 261 231 235 232 237 221 212 227 213 204 208 213 213 221 213 211 214 213 212 211 212 216 217 216 220 220 222 226
334 355 337 344 10 7 37 18 96 105 67 213 140 266 309 340 290 260 281 243 240 230 232 242 203 205 209 216 215 219 214 211 212 210 213 211 213 218 220 220 221 226 231 232
98 77 160 207 229 253 300 339 353 102 113 217 221 279 317 311 255 263 243 250 235 217 239 208 198 204 212 216 214 215 217 212 212 209 211 212 210 213 216 219 222 227 230 230
74 283 229 240 257 260 259 238 259 230 209 176 255 209 266 274 283 253 247 238 238 221 217 206 199 202 210 206 205 184 224 216 208 211 210 213 213 213 218 221 222 224 226 230
192 257 293 278 229 248 285 279 255 225 243 230 249 268 223 306 304 284 230 214 234 225 211 210 210 211 209 213 213 208 217 211 215 210 213 210 207 204 207 212 220 226 237 242
189 193 195 259 232 338 298 229 192 135 89 261 182 248 328 314 302 275 265 223 215 233 214 206 223 219 217 215 217 218 222 216 209 212 211 214 213 217 215 221 224 237 245 248
181 145 168 273 248 222 250 318 335 114 104 337 285 315 321 320 313 298 271 251 223 231 223 222 211 213 218 219 219 223 221 213 213 218 215 216 219 221 226 228 226 241 252 254
182 122 249 211 202 289 304 295 201 184 217 283 310 336 339 331 328 272 251 243 218 224 227 222 221 214 215 220 220 221 216 218 214 218 217 220 223 228 234 228 237 238 245 256
95 24 160 139 198 250 256 319 329 320 261 354 6 355 345 346 13 277 6 274 211 212 221 218 220 220 218 215 216 212 209 213 215 217 220 221 224 229 232 231 239 242 242 242
325 336 239 232 227 275 328 310 319 159 246 312 330 353 347 323 268 296 309 283 226 227 220 216 213 216 219 218 209 205 204 214 214 211 218 219 223 220 225 238 240 234 233 241
226 238 268 292 250 270 348 343 51 269 307 281 307 306 337 332 335 326 327 284 253 266 233 220 211 208 206 208 206 206 216 220 207 213 211 212 211 213 218 226 221 226 235 240
281 192 242 204 249 280 299 263 293 280 279 278 281 301 324 326 336 342 336 320 288 327 273 218 222 210 191 193 200 201 207 208 202 205 203 200 198 207 214 216 225 221 215 223
283 268 248 331 265 269 301 305 296 285 265 272 279 282 300 309 320 338 337 328 278 328 290 209 211 216 189 191 183 186 183 189 190 190 190 192 201 202 209 216 226 222 223 238
239 237 241 260 280 282 287 318 335 325 287 275 272 276 284 291 299 326 338 322 308 320 272 272 216 223 205 196 196 195 187 185 190 193 197 198 200 205 212 226 219 225 228 243
214 220 186 251 270 263 274 296 309 313 302 279 279 285 288 277 289 310 328 327 317 336 293 277 266 233 220 208 204 194 194 193 188 196 198 199 205 204 209 205 209 226 242 258